Location: Bakhuizen
(52.8696°N, 5.4575°E)
Time: 09:02:43
(UTC+00:00)

Cosmos 1553 Rocket - Pass Details

Date: 11 May 2021
Orbit: 942 x 1007 km, 82.9° (Epoch: 15 June)

Event Time Altitude Azimuth Distance (km) Brightness Sun altitude
Rises 19:53:40 0° 195° (SSW) 3,620 6.7 -4.6°
Reaches altitude 10° 19:56:08 10° 198° (SSW) 2,686 6.1 -4.9°
Maximum altitude 20:02:17 72° 283° (WNW) 1,020 4.4 -5.6°
Drops below altitude 10° 20:08:35 10° 8° (N) 2,749 6.9 -6.3°
Sets 20:11:09 0° 10° (N) 3,710 7.5 -6.6°
